This demonstration page uses our WeatherBlox Daily Observations layout. Learn more.

Left ArrowRight Arrow

39.51506, -84.39828

Hourly Observations for May 11, 2016

Temp ( °F °C ) Dew Point ( °F °C ) Humidity (%) Winds ( mph kmh ) Pressure ( in mb ) Visibility ( mi km ) Precip ( " mm )
12:15 am 00:15 Hazy 60 15.3 55 12.5 84 84 undefined N/A 30.03 1017 5 8 N/A
12:35 am 00:35 Mostly Cloudy with Haze 59 15 54 12.2 83 83 undefined N/A 30.03 1017 1 1 N/A
12:55 am 00:55 Hazy 57 13.8 52 11.1 84 84 undefined N/A 30.03 1017 2 3 N/A
1:15 am 01:15 Mostly Cloudy with Mist and Fog 58 14.5 53 11.9 85 85 undefined N/A 30.03 1017 2 2 N/A
1:35 am 01:35 Cloudy with Haze 57 13.8 52 11.3 85 85 undefined N/A 30.03 1017 1 1 N/A
1:55 am 01:55 Cloudy with Haze 58 14.7 54 12.1 85 85 undefined N/A 30.03 1017 5 8 N/A
2:15 am 02:15 Cloudy 60 15.3 55 12.7 85 85 undefined N/A 30.03 1017 7 11 N/A
2:35 am 02:35 Cloudy 60 15.3 55 12.7 85 85 undefined N/A 30.03 1017 7 11 N/A
2:55 am 02:55 Cloudy 60 15.3 55 12.7 85 85 undefined N/A 30.03 1017 7 11 N/A
3:15 am 03:15 Cloudy 60 15.4 55 12.8 85 85 undefined N/A 30.03 1017 10 16 N/A
3:35 am 03:35 Cloudy 61 16 56 13.3 84 84 N N/A 30.00 1016 10 16 N/A
3:55 am 03:55 Cloudy 60 15.6 55 12.8 84 84 undefined N/A 30.00 1016 10 16 N/A
4:15 am 04:15 Cloudy 60 15.7 55 13 84 84 N N/A 30.00 1016 10 16 N/A
4:35 am 04:35 Cloudy 61 16 56 13.1 83 83 undefined N/A 30.00 1016 10 16 N/A
4:55 am 04:55 Cloudy 61 16 56 13.2 84 84 undefined N/A 30.00 1016 10 16 N/A
5:15 am 05:15 Cloudy 61 16 55 13 83 83 SSW 3 6 30.03 1017 10 16 N/A
5:35 am 05:35 Cloudy 61 16 55 13 83 83 N N/A 30.03 1017 7 11 N/A
5:55 am 05:55 Cloudy 61 16 56 13.1 83 83 N N/A 30.03 1017 7 11 N/A
6:15 am 06:15 Cloudy with Haze 61 16 56 13.1 83 83 N N/A 30.03 1017 5 8 N/A
6:35 am 06:35 Cloudy with Haze 61 16 56 13.1 83 83 undefined N/A 30.03 1017 5 8 N/A
6:55 am 06:55 Cloudy with Haze 61 16 56 13.3 84 84 undefined N/A 30.03 1017 3 5 N/A
7:15 am 07:15 Cloudy with Haze 61 16 56 13.2 84 84 undefined N/A 30.03 1017 3 5 N/A
7:35 am 07:35 Cloudy with Haze 61 16 56 13.3 84 84 N N/A 30.09 1019 3 5 N/A
7:55 am 07:55 Cloudy with Haze 62 16.6 57 13.8 84 84 undefined N/A 30.06 1018 4 6 N/A
8:15 am 08:15 Cloudy with Haze 62 16.6 57 13.7 83 83 undefined N/A 30.06 1018 4 6 N/A
8:35 am 08:35 Cloudy with Haze 62 16.6 56 13.6 83 83 undefined N/A 30.06 1018 4 6 N/A
8:55 am 08:55 Cloudy with Haze 62 16.6 56 13.6 83 83 undefined N/A 30.06 1018 3 5 N/A
9:15 am 09:15 Cloudy with Haze 62 16.6 56 13.6 83 83 undefined N/A 30.06 1018 3 5 N/A
9:35 am 09:35 Cloudy with Haze 63 17 57 14 83 83 undefined N/A 30.06 1018 4 6 N/A
9:55 am 09:55 Cloudy with Haze 63 17 57 13.7 81 81 undefined N/A 30.06 1018 5 8 N/A
10:15 am 10:15 Cloudy with Haze 64 18 58 14.6 81 81 undefined N/A 30.06 1018 5 8 N/A
10:35 am 10:35 Cloudy with Haze 64 18 58 14.6 81 81 undefined N/A 30.06 1018 4 6 N/A
10:55 am 10:55 Cloudy with Haze 67 19.4 60 15.6 79 79 undefined N/A 30.06 1018 5 8 N/A
11:15 am 11:15 Cloudy 69 20.8 61 16.3 76 76 N N/A 30.06 1018 7 11 N/A
11:35 am 11:35 Cloudy 69 20.8 60 15.8 73 73 undefined N/A 30.06 1018 10 16 N/A
11:55 am 11:55 Mostly Cloudy 69 20.8 60 15.4 71 71 undefined N/A 30.06 1018 10 16 N/A
12:15 pm 12:15 Mostly Cloudy 70 20.9 58 14.6 67 67 undefined N/A 30.06 1018 10 16 N/A
12:35 pm 12:35 Cloudy 71 21.6 60 15.4 68 68 undefined N/A 30.06 1018 10 16 N/A
12:55 pm 12:55 Cloudy 71 21.7 59 15.2 67 67 undefined N/A 30.09 1019 10 16 N/A
1:15 pm 13:15 Partly Cloudy 74 23.6 61 16.3 64 64 SSW 6 9 30.09 1019 10 16 N/A
1:35 pm 13:35 Partly Cloudy 74 23.6 60 15.6 61 61 undefined N/A 30.09 1019 10 16 N/A
1:55 pm 13:55 Partly Cloudy 74 23.6 61 16.2 63 63 undefined N/A 30.09 1019 10 16 N/A
2:15 pm 14:15 Partly Cloudy 74 23.6 59 15 59 59 undefined N/A 30.09 1019 10 16 N/A
2:35 pm 14:35 Partly Cloudy 74 23.6 59 14.8 58 58 undefined N/A 30.06 1018 10 16 N/A
2:55 pm 14:55 Partly Cloudy 74 23.6 58 14.3 56 56 WNW 5 7 30.06 1018 10 16 N/A
3:15 pm 15:15 Sunny 76 24.4 59 15 56 56 SSW 8 13 30.06 1018 10 16 N/A
3:35 pm 15:35 Sunny 77 25.1 59 14.8 53 53 W 6 9 30.03 1017 10 16 N/A
3:55 pm 15:55 Sunny 77 25.1 59 14.9 53 53 undefined N/A 30.03 1017 10 16 N/A
4:15 pm 16:15 Sunny 77 25.1 56 13.5 49 49 undefined N/A 30.03 1017 10 16 N/A
4:35 pm 16:35 Partly Cloudy 77 25.1 58 14.2 51 51 undefined N/A 30.03 1017 10 16 N/A
4:55 pm 16:55 Partly Cloudy 77 25.1 56 13.5 49 49 N N/A 30.03 1017 10 16 N/A
5:15 pm 17:15 Partly Cloudy 77 25.1 58 14.2 51 51 undefined N/A 30.03 1017 10 16 N/A
5:35 pm 17:35 Sunny 77 25.1 57 13.8 50 50 undefined N/A 30.03 1017 10 16 N/A
5:55 pm 17:55 Sunny 79 26.1 57 14.1 48 48 undefined N/A 30.03 1017 10 16 N/A
6:15 pm 18:15 Sunny 79 26.3 58 14.4 48 48 N N/A 30.00 1016 10 16 N/A
6:35 pm 18:35 Sunny 80 26.5 57 14 46 46 N N/A 30.00 1016 10 16 N/A
6:55 pm 18:55 Sunny 78 25.6 57 14.1 49 49 undefined N/A 30.00 1016 10 16 N/A
7:15 pm 19:15 Sunny 77 25.1 58 14.4 52 52 undefined N/A 30.00 1016 10 16 N/A
7:35 pm 19:35 Sunny 77 25.1 61 16.2 58 58 undefined N/A 30.00 1016 10 16 N/A
7:55 pm 19:55 Sunny 74 23.6 62 16.4 64 64 undefined N/A 30.00 1016 10 16 N/A
8:15 pm 20:15 Sunny 74 23.6 64 17.6 69 69 N N/A 30.00 1016 10 16 N/A
8:35 pm 20:35 Sunny 69 20.8 62 16.7 77 77 undefined N/A 30.03 1017 10 16 N/A
8:55 pm 20:55 Clear 69 20.8 63 17 79 79 undefined N/A 30.03 1017 10 16 N/A
9:15 pm 21:15 Clear 69 20.8 63 17 79 79 undefined N/A 30.03 1017 7 11 N/A
9:35 pm 21:35 Clear 69 20.8 64 17.5 82 82 undefined N/A 30.03 1017 10 16 N/A
9:55 pm 21:55 Clear 67 19.5 61 16.1 81 81 undefined N/A 30.03 1017 10 16 N/A
10:15 pm 22:15 Clear 67 19.5 61 16.1 81 81 undefined N/A 30.00 1016 10 16 N/A
10:35 pm 22:35 Partly Cloudy 67 19.5 61 16.2 81 81 undefined N/A 30.00 1016 10 16 N/A
10:55 pm 22:55 Clear 64 18 59 14.8 82 82 undefined N/A 30.00 1016 10 16 N/A
11:15 pm 23:15 Clear 64 18 59 14.9 82 82 undefined N/A 30.00 1016 7 11 N/A
11:35 pm 23:35 Clear 64 18 59 15 83 83 undefined N/A 30.00 1016 10 16 N/A
11:55 pm 23:55 Clear 64 18 59 15 83 83 undefined N/A 30.00 1016 10 16 N/A

Powered by AerisWeather